This demonstration page uses our WeatherBlox Daily Observations layout. Learn more.

Left ArrowRight Arrow

41.86663, -103.66717

Hourly Observations for April 11, 2021

Temp ( °F °C ) Dew Point ( °F °C ) Humidity (%) Winds ( mph kmh ) Pressure ( in mb ) Visibility ( mi km ) Precip ( " mm )
12:53 am 00:53 Clear 42 5.6 19 -7.2 40 40 N 7 11 29.54 1000 10 16 N/A
1:53 am 01:53 Clear 44 6.7 23 -5 43 43 NW 12 19 29.58 1002 10 16 N/A
2:53 am 02:53 Clear 41 5 26 -3.3 55 55 NW 17 28 29.62 1003 10 16 N/A
3:53 am 03:53 Clear 39 3.9 25 -3.9 57 57 NW 18 30 29.65 1004 10 16 N/A
4:53 am 04:53 Clear 37 2.8 25 -3.9 62 62 NW 18 30 29.67 1005 10 16 N/A
5:53 am 05:53 Clear 36 2.2 26 -3.3 67 67 NW 14 22 29.72 1007 10 16 N/A
6:53 am 06:53 Mostly Sunny 37 2.8 26 -3.3 65 65 NW 17 28 29.78 1008 10 16 N/A
7:53 am 07:53 Sunny 41 5 26 -3.3 55 55 NW 23 37 29.81 1010 10 16 N/A
8:53 am 08:53 Mostly Sunny 43 6.1 25 -3.9 49 49 NNW 23 37 29.85 1011 10 16 N/A
9:53 am 09:53 Sunny 46 7.8 25 -3.9 44 44 NW 21 33 29.87 1012 10 16 N/A
10:53 am 10:53 Sunny 49 9.4 21 -6.1 33 33 NNW 30 48 29.86 1011 10 16 N/A
11:53 am 11:53 Mostly Sunny 50 10 19 -7.2 29 29 NNW 30 48 29.88 1012 10 16 N/A
12:53 pm 12:53 Sunny 52 11.1 17 -8.3 25 25 NW 26 43 29.88 1012 10 16 N/A
1:53 pm 13:53 Sunny 53 11.7 10 -12.2 18 18 NNW 36 57 29.85 1011 10 16 N/A
2:53 pm 14:53 Sunny 53 11.7 10 -12.2 18 18 NNW 37 59 29.85 1011 10 16 N/A
3:53 pm 15:53 Sunny 52 11.1 11 -11.7 19 19 NNW 35 56 29.86 1011 10 16 N/A
4:53 pm 16:53 Sunny 50 10 16 -8.9 26 26 NNW 32 52 29.92 1013 10 16 N/A
5:53 pm 17:53 Sunny 47 8.3 16 -8.9 29 29 N 28 44 29.95 1014 10 16 N/A
6:53 pm 18:53 Sunny 44 6.7 17 -8.3 34 34 N 22 35 29.97 1015 10 16 N/A
7:53 pm 19:53 Clear 40 4.4 16 -8.9 38 38 N 15 24 30.01 1016 10 16 N/A
8:53 pm 20:53 Clear 36 2.2 14 -10 40 40 N 12 19 30.04 1017 10 16 N/A
9:53 pm 21:53 Cloudy 36 2.2 16 -8.9 44 44 NNE 6 9 30.04 1017 10 16 N/A
10:53 pm 22:53 Cloudy 38 3.3 16 -8.9 41 41 N 7 11 30.04 1017 10 16 N/A
11:53 pm 23:53 Cloudy 38 3.3 16 -8.9 41 41 N 9 15 30.05 1018 10 16 N/A

Powered by AerisWeather